User: anonymous   Login
Location: Caseificio
(44.7500°N, 11.0500°E)
Time: 12:45:57
(UTC+00:00)
Language:

Meteor 1-24 Rocket - Orbit

View from above orbital plane
View from above orbital plane
View from above satellite
View from above satellite

Ground track
Ground track

The orbit data is extracted from the following two-line orbital elements,

1  8800U 76032B   22228.17832895  .00000019  00000-0  37779-5 0  9991
2  8800  81.2517 182.4155 0093063 245.1979 113.9490 14.10207034383986
Epoch (UTC): 16 August 2022 04:16:47
Eccentricity: 0.0093063
inclination: 81.2517°
perigee height: 791 km
apogee height: 926 km
right ascension of ascending node: 182.4155°
argument of perigee: 245.1979°
revolutions per day: 14.10207034
mean anomaly at epoch: 113.9490°
orbit number at epoch: 38398

The dashed part of the orbit path shows where the satellite is in the earth's shadow,  

DLR